カタログに戻る

FALCON 9 R/B

運用中HEO
NORAD 54049·ROCKET BODY·🇺🇸 United States

打ち上げ Oct 15, 2022 から Cape Canaveral Space Force Station

Loading…

次のパス (今後24時間)

TLE

最新Source: Space-Track

元期: Sep 10, 2026, 03:56 UTC

1 54049U 22134B   26253.16406632 -.00000215  00000-0  32323-3 0  9995
2 54049  27.6924  12.0385 8006655 297.6836   5.3630  1.35654979 19268

AllMySatでFALCON 9 R/Bをリアルタイム追跡

Download on the App Store